Regional Weather Roundup
Issued by NWS

Home | Current Version | Previous Version | Graphics & Text | Print | Product List | Glossary On
Versions: 1 2 3 4 5 6 7 8 9 10 11 12 13 14 15 16 17 18 19 20 21 22 23 24 25 26 27 28 29 30 31 32 33 34 35 36 37 38 39 40 41 42 43 44 45 46 47 48 49 50
000
ASUS43 KLOT 180810
RWRIL

ILLINOIS REGIONAL WEATHER ROUNDUP
NATIONAL WEATHER SERVICE CHICAGO/ROMEOVILLE IL
300 AM CDT FRI APR 18 2014

NOTE: "FAIR" INDICATES FEW OR NO CLOUDS BELOW 12,000 FEET WITH NO
SIGNIFICANT WEATHER AND/OR OBSTRUCTIONS TO VISIBILITY.

* THESE STATIONS ARE NOT UNDER NWS QUALITY CONTROL. THEY ALSO MAY NOT
  REPORT WEATHER SUCH AS PRECIPITATION OR FOG.

ILZ001-002-007-009-015-016-024-180900-
NORTHWEST ILLINOIS

CITY           SKY/WX    TMP DP  RH WIND       PRES   REMARKS
MOLINE         CLEAR     39  32  76 N3        30.29S
STERLING*      CLEAR     37  32  81 N6        30.28S WCI  33
SAVANNA*       CLEAR     36  32  85 N5        30.29F WCI  32
$$

ILZ003-004-008-010-011-017-018-180900-
NORTH CENTRAL ILLINOIS

CITY           SKY/WX    TMP DP  RH WIND       PRES   REMARKS
ROCKFORD       PTCLDY    39  32  76 N10       30.29F WCI  32
FREEPORT*      CLEAR     35  33  92 N3        30.31S
ROCHELLE*      CLEAR     37  33  87 N5        30.28R WCI  33
DE KALB*       PTCLDY    37  34  89 N6        30.26S WCI  32
PERU*          PTCLDY    40  35  84 CALM      30.27S
$$

ILZ005-006-012>014-019>023-180900-
NORTHEAST ILLINOIS

CITY           SKY/WX    TMP DP  RH WIND       PRES   REMARKS
CHICAGO-OHARE  CLOUDY    44  36  73 CALM      30.24F
CHICAGO-MIDWAY CLOUDY    49  39  68 CALM      30.24F
AURORA         MOCLDY    38  34  85 NW6       30.25F WCI  33
LANSING*       CLOUDY    48  40  72 W3        30.25S
WAUKEGAN       MOCLDY    38  34  85 NE6       30.26F WCI  33
DUPAGE AIRPORT MOCLDY    42  36  79 NW3       30.24F
KANKAKEE*      CLOUDY    49  40  72 CALM      30.25S
WHEELING       MOCLDY    45  38  76 N9        30.26S
MORRIS*        CLOUDY    42  36  76 NW6       30.24F
ROMEOVILLE*    CLOUDY    45  38  76 W6        30.25S
NORTHERLY ISL    N/A     45  38  76 SE1         N/A
$$

LMZ740>746-180900-
SOUTHERN LAKE MICHIGAN

STATION/POSITION SKY/WX   TEMP    WIND        PRES    VSBY  WAVE
                          AIR SEA DIR/SP/G                  HT/PER
                          (F)     (DEG/KT/KT) (MB)    (MI)  (FT/S)
WAUKEGAN HARBOR            43      30/ 10/ 11 1026.1S
HARRISON CRIB              45     180/  5/  6   N/A
BURNHAM HARBOR             45     170/  1/  4   N/A
CALUMET HARBOR             45     330/  2/  2 1024.8F
MICHIGAN CITY              48     130/  6/  6   N/A
$$

ILZ025>027-034>036-040-047-049-050-058-095>099-180900-
WEST-CENTRAL ILLINOIS

CITY           SKY/WX    TMP DP  RH WIND       PRES   REMARKS
QUINCY         CLEAR     39  34  82 N5        30.28S
GALESBURG*     CLEAR     33  33  99 CALM      30.28S
MACOMB*        CLEAR     36  33  89 N6        30.30S WCI  32
JACKSONVILLE*  PTCLDY    45  38  76 CALM      30.28S
PITTSFIELD*    PTCLDY    45  39  79 CALM      30.28F
$$

ILZ028>032-037-038-041>044-048-051>054-059>061-180900-
CENTRAL ILLINOIS

CITY           SKY/WX    TMP DP  RH WIND       PRES   REMARKS
PONTIAC        CLOUDY    46  43  87 NW5       30.24F
BLOOMINGTON    CLOUDY    46  36  68 N6        30.26F
DECATUR        CLOUDY    47  40  76 NE3       30.26F
PEORIA         PTCLDY    45  35  68 NW3       30.28S
LACON*         PTCLDY    39  35  86 CALM      30.27S
LINCOLN*       CLOUDY    48  39  69 CALM      30.27S
SPRINGFIELD    CLOUDY    47  38  71 CALM      30.27S
TAYLORVILLE    CLOUDY    45  39  81 N5        30.27S
$$

ILZ033-039-045-046-055>057-062-063-180900-
EAST-CENTRAL ILLINOIS

CITY           SKY/WX    TMP DP  RH WIND       PRES   REMARKS
CHAMPAIGN      CLOUDY    48  40  73 N3        30.26S
RANTOUL*       CLOUDY    51  40  67 CALM      30.26S
MATTOON        PTCLDY    45  40  82 NW6       30.25S
PARIS*         PTCLDY    43  39  86 CALM      30.26S
$$

ILZ079-100>102-180900-
SOUTHWEST ILLINOIS

CITY           SKY/WX    TMP DP  RH WIND       PRES   REMARKS
ALTON          PTCLDY    48  41  74 N5        30.26S
BELLEVILLE     MOCLDY    49  41  75 NW6       30.25S
CAHOKIA*       PTCLDY    48  41  76 NW3       30.25F
SPARTA*        CLOUDY    50  43  76 CALM      30.25F
$$

ILZ064>066-069>071-074>076-080>082-084>086-088>090-092>094-180900-
SOUTH-CENTRAL ILLINOIS

CITY           SKY/WX    TMP DP  RH WIND       PRES   REMARKS
CARBONDALE     CLEAR     42  40  92 SE3       30.24F
CAIRO*         PTCLDY    48  44  85 CALM      30.24S
MARION         CLEAR     43  41  93 CALM      30.25F
MT. VERNON     MOCLDY    41  30  65 CALM      30.26S
CENTRALIA*       N/A     48  40  74 CALM      30.25S
SALEM*         MOCLDY    49  43  78 N5        30.26S
METROPOLIS*    PTCLDY    45  42  91 CALM      30.24S
$$

ILZ067-068-072-073-078-083-087-091-180900-
SOUTHEAST ILLINOIS

CITY           SKY/WX    TMP DP  RH WIND       PRES   REMARKS
FAIRFIELD*     CLEAR     45  43  93 CALM      30.26S
HARRISBURG*    CLEAR     44  42  91 CALM      30.26F
ROBINSON*      CLEAR     43  41  95 CALM      30.26S
CARMI*         PTCLDY    45  44  95 CALM      30.25R
$$

ABBREVIATIONS USED IN REMARKS
   TC - TEMPERATURE IN CELSIUS
  WCI - WIND CHILL INDEX
   HX - HEAT INDEX
  VSB - VISIBILITY
$$




USA.gov is the U.S. government's official web portal to all federal, state and local government web resources and services.